SCP
0 0 0 0 0 0 0 -0 -0 -0 0 0 0 0 0 0 0 0 -0 -0 -0 -0 -0 -0 -0 -0 -0 0 0 0 0 0 0 0 0 0 0 0 0 0 0 0 0 0
0 0 0 -0 -0 0 0 -0 0 -0 0 0 0 0 0 0 0 -0 -0 -0 0 -0 -0 -0 -0 0 0 0 0 0 0 0 0 0 0 0 0 0 0 0 0 0 0 0
-0 0 0 0 -0 0 0 0 0 0 0 0 0 0 0 0 0 0 0 0 -0 -0 -0 0 0 0 0 0 0 1 0 0 0 0 0 0 0 0 0 0 0 0 0 0
0 0 0 0 0 0 0 0 0 0 0 0 0 0 -0 -0 0 0 0 0 0 0 0 0 0 1 1 1 1 0 0 0 0 0 0 0 0 0 0 0 0 0 0 0
0 0 0 0 0 0 0 0 0 0 0 0 0 0 -0 -0 0 0 0 0 0 0 1 1 1 1 1 0 0 0 0 0 0 0 0 0 0 0 0 0 0 0 0 0
0 0 0 0 0 0 0 0 0 0 0 0 0 0 1 0 0 1 0 1 1 1 1 1 1 0 0 0 0 0 0 0 0 0 0 0 0 0 0 0 0 0 0 0
0 0 0 0 0 0 0 0 0 0 0 0 0 0 0 0 0 1 1 1 2 2 2 1 1 0 0 0 0 0 0 0 0 0 0 0 0 0 0 0 0 0 0 0
0 0 0 0 0 0 1 1 1 1 0 0 0 1 1 1 1 1 1 1 1 1 2 1 0 0 0 0 0 0 0 0 0 0 0 0 0 0 0 0 0 0 0 0
0 0 0 0 0 0 0 0 0 0 0 0 0 1 1 1 1 1 1 1 1 1 1 1 0 0 0 0 0 0 0 0 0 0 0 0 0 0 0 0 0 0 0 0
0 0 0 0 0 0 0 0 0 0 1 1 1 1 1 1 1 1 1 1 1 1 1 0 0 0 0 0 1 0 0 0 0 0 0 0 0 0 0 0 0 0 0 0
0 0 0 0 0 0 0 0 1 1 1 2 2 2 1 1 2 3 1 1 1 1 1 0 0 1 0 0 1 1 0 0 0 0 0 0 0 0 0 0 0 0 0 0
1 0 0 0 0 0 0 0 1 1 1 2 3 3 2 2 2 2 2 1 1 1 1 1 1 0 0 1 0 0 0 0 0 0 0 0 0 0 0 0 0 0 0 0
0 0 0 0 0 0 0 0 0 1 2 1 2 2 3 1 1 1 1 1 1 1 1 1 1 0 0 0 0 0 0 0 0 0 0 0 0 0 0 0 0 0 0 0
0 -0 0 0 0 0 0 1 1 1 0 1 1 1 6 1 0 1 1 1 1 1 0 0 0 0 0 0 0 0 0 0 0 0 0 0 0 0 0 0 0 0 0 0
0 0 -0 -0 -0 -0 -0 0 0 0 0 0 0 0 0 -0 0 1 0 0 0 0 0 0 0 0 0 0 0 0 0 0 0 0 0 0 0 0 0 0 0 0 0 0
0 0 0 0 0 0 -0 -0 0 0 0 0 0 0 0 0 0 0 0 0 0 0 0 0 0 0 0 0 0 0 0 0 0 0 0 0 0 0 0 0 0 0 0 0
0 0 0 0 0 0 0 0 0 0 1 1 0 1 0 0 0 0 0 0 0 0 0 0 0 0 0 0 0 0 0 0 0 0 0 0 0 0 0 0 0 0 0 0
0 0 0 0 0 1 1 1 1 1 1 0 0 0 0 0 0 0 0 0 0 0 0 0 0 0 0 0 0 0 0 0 0 0 0 0 0 0 0 0 0 0 0 0
0 0 0 0 0 0 0 1 0 1 0 0 0 0 0 0 0 0 0 0 0 0 0 0 0 0 0 0 0 0 0 0 0 0 0 0 0 0 0 0 0 0 0 0
0 0 0 0 0 0 0 0 0 0 0 0 0 0 0 0 0 0 0 0 0 0 0 0 0 0 0 0 0 0 0 0 0 0 0 0 0 0 0 0 0 0 0 0
0 0 0 0 0 0 0 0 0 0 0 0 0 0 0 0 0 0 0 0 0 0 0 0 0 0 0 0 0 0 0 0 0 0 0 0 0 0 0 0 0 0 0 0
0 0 -0 0 0 0 0 0 0 0 0 0 0 0 0 0 0 0 0 0 0 0 0 0 0 0 0 0 0 0 0 0 0 0 0 0 0 0 0 0 0 0 0 0
0 0 0 0 0 0 0 0 0 0 0 0 0 0 0 0 0 0 0 0 0 0 0 0 0 0 0 0 0 0 0 0 0 0 0 0 0 0 0 0 0 0 0 0
-0 0 0 0 0 0 0 0 0 0 0 0 0 0 0 0 0 0 0 0 0 0 0 0 0 0 0 0 0 0 0 0 0 0 0 0 0 0 0 0 0 0 0 0
0 0 0 0 0 0 0 0 0 0 0 0 0 0 0 0 0 0 0 0 0 -0 0 0 0 0 0 0 0 0 0 0 0 0 0 0 0 0 0 0 0 0 0 0
0 0 0 0 0 0 0 0 0 0 0 0 0 0 0 0 0 0 0 0 0 0 0 0 0 0 0 0 0 0 0 0 0 0 0 0 0 0 0 0 0 0 0 0
0 0 0 0 0 0 0 0 0 0 0 0 0 0 0 0 0 0 0 0 0 0 0 0 0 0 0 0 0 0 0 0 0 0 0 0 0 0 0 0 0 0 0 0
Wind_Speed_500mb
28 22 17 24 22 26 31 35 29 22 12 21 11 7 4 30 46 50 47 46 46 46 44 42 40 36 36 36 31 31 28 24 21 17 7 6 8 10 10 7 6 8 7 9
25 25 20 28 27 27 31 30 25 28 28 30 5 4 4 25 48 56 57 52 47 45 43 44 43 42 42 39 37 33 31 27 25 14 6 9 10 11 10 8 7 6 5 10
23 3 13 20 31 30 29 27 27 28 26 19 17 17 19 19 41 59 62 58 54 52 49 46 46 47 46 44 38 38 36 33 23 11 12 11 11 11 10 7 9 7 10 10
21 6 24 7 11 16 29 26 28 28 28 27 23 28 28 23 37 58 61 59 55 52 48 43 40 40 40 42 40 39 41 34 22 17 14 14 14 14 13 11 10 10 13 12
16 25 31 10 11 13 19 28 28 28 23 20 20 21 28 21 30 46 53 53 51 47 44 43 42 44 41 37 38 40 34 26 21 18 15 15 17 17 14 13 11 11 12 10
16 21 31 17 19 4 5 19 29 14 14 20 13 19 17 4 18 29 38 42 43 42 42 41 40 36 38 39 44 41 31 25 18 12 14 19 20 19 17 14 13 12 11 9
21 23 23 16 10 4 18 3 25 21 19 17 10 14 10 11 18 23 30 35 38 43 42 39 35 32 39 41 39 32 27 19 16 19 22 18 19 19 18 16 16 15 12 14
13 20 27 12 5 12 12 18 22 23 20 17 8 5 8 15 23 22 26 32 34 39 40 38 25 34 35 34 34 29 24 20 18 18 16 16 18 19 18 17 15 15 14 14
10 8 4 11 13 13 14 16 21 22 20 13 6 5 9 20 27 29 30 32 30 34 42 34 26 34 36 33 28 27 24 21 18 18 18 19 21 19 14 17 12 14 17 17
7 6 3 14 9 12 13 16 15 14 13 8 7 5 13 23 29 31 30 38 37 30 31 26 23 24 24 28 32 28 23 20 20 17 19 20 15 15 15 16 17 17 18 18
13 13 8 10 6 7 8 8 5 4 4 5 11 17 19 23 30 40 30 31 26 24 28 31 29 28 29 31 29 23 20 18 18 15 18 15 16 17 19 22 21 20 20 19
9 9 13 20 13 13 13 5 10 15 25 28 32 30 23 19 19 24 26 29 31 30 26 27 28 26 27 24 18 16 14 14 12 11 13 14 15 17 22 20 29 27 26 30
13 8 16 12 11 2 9 12 18 33 34 35 35 32 23 11 13 26 32 36 35 33 32 32 29 25 23 17 13 13 11 11 9 10 12 13 14 17 18 21 25 24 28 29
6 11 7 2 9 13 15 21 30 27 24 22 20 24 35 6 11 28 28 26 31 36 30 27 22 17 11 8 10 12 11 13 8 10 13 13 15 16 18 19 21 20 24 28
5 4 15 13 5 12 16 20 27 31 26 31 37 39 35 38 36 26 28 27 28 31 25 20 16 12 11 10 11 10 10 10 12 13 16 20 20 20 23 25 25 24 21 27
16 9 6 4 9 16 18 16 24 35 38 35 41 30 28 30 39 36 33 27 28 25 19 15 12 6 5 9 12 11 14 20 23 21 23 24 27 28 27 31 32 30 31 31
11 8 6 9 13 12 14 18 24 34 33 29 27 25 25 30 33 33 30 24 22 18 13 10 7 10 11 15 15 15 23 27 32 34 38 39 38 43 38 38 39 38 39 37
9 10 13 17 20 24 27 28 30 28 28 31 32 30 27 28 30 27 24 17 12 8 2 3 6 6 14 19 16 17 22 24 26 28 29 31 33 32 34 39 37 36 40 36
18 21 27 32 31 33 33 35 32 30 30 31 31 31 29 28 26 23 19 15 11 9 5 2 3 6 10 11 8 11 14 16 16 19 22 23 23 17 25 32 30 26 24 28
28 31 34 39 36 36 37 34 33 33 30 27 28 26 26 27 24 19 15 13 9 4 4 7 9 13 16 21 18 16 19 20 20 22 23 23 23 25 24 27 29 30 34 38
32 34 35 39 42 42 41 39 38 40 39 36 32 32 24 20 16 15 13 11 7 9 13 17 19 19 18 23 17 15 16 17 18 20 20 21 23 23 25 28 31 33 35 34
37 38 39 40 42 46 44 38 33 38 36 31 28 26 19 13 7 3 2 6 10 11 11 15 19 22 20 17 14 12 14 15 15 15 16 18 18 20 19 21 22 22 24 27
42 44 41 39 39 43 39 35 32 27 24 21 17 13 11 9 8 7 4 10 10 12 13 16 18 18 17 14 14 15 15 16 16 16 16 16 17 17 17 18 19 21 23 24
42 41 39 35 33 30 27 23 18 16 15 15 14 15 15 11 14 13 13 12 13 13 15 18 20 20 24 16 15 14 14 14 15 14 14 19 16 17 17 19 20 22 25 26
32 30 27 24 21 18 15 14 15 16 18 18 18 18 17 16 13 12 11 12 19 14 9 18 22 23 15 15 16 16 15 15 17 15 17 18 20 22 23 26 28 31 32 31
26 22 20 18 15 13 12 12 13 13 14 15 16 16 16 15 16 13 13 14 12 16 12 12 12 14 15 17 17 18 20 20 22 24 27 27 29 30 32 34 36 37 39 41
23 21 17 15 13 12 11 14 14 15 15 13 14 14 14 12 15 13 15 13 12 14 14 15 16 19 19 21 20 22 24 25 29 31 31 32 35 37 38 39 41 43 45 46
Wind_Direction_500mb
260 276 273 238 222 217 233 252 263 273 314 304 338 344 265 202 184 180 182 184 183 180 182 185 183 182 177 181 189 186 191 189 188 200 215 313 332 334 331 320 281 255 249 257
266 250 243 247 246 208 222 251 247 263 287 289 33 338 260 211 193 189 185 187 183 180 180 179 181 180 187 193 198 197 193 187 203 203 243 280 317 318 319 305 284 266 261 261
270 28 236 241 243 236 237 223 236 247 271 349 284 287 293 250 210 200 192 186 185 181 181 183 184 190 194 200 202 203 193 199 205 209 252 280 291 306 309 289 262 270 258 261
276 255 248 325 348 263 232 229 234 252 276 291 302 288 280 251 219 205 194 188 186 184 180 182 180 185 194 205 200 197 193 195 200 221 246 270 293 300 291 272 266 268 272 251
256 253 263 189 219 213 217 243 230 253 279 302 300 285 260 229 218 204 193 190 190 186 179 175 179 186 197 199 191 186 193 196 207 224 247 273 285 288 277 267 255 262 272 259
250 270 264 297 74 118 234 241 20 338 308 304 295 277 62 123 192 188 188 188 183 179 174 175 185 193 196 189 185 187 193 201 217 243 262 276 283 280 271 275 266 268 260 268
244 250 261 43 76 197 228 322 334 323 315 305 291 354 354 120 157 173 175 177 173 171 166 171 179 191 186 187 188 191 192 200 219 248 273 262 270 277 283 274 250 267 256 265
236 271 257 26 141 255 6 325 326 319 314 312 329 53 99 128 151 162 157 156 158 158 162 161 165 186 182 184 189 193 199 209 232 262 256 250 271 281 280 270 261 256 250 265
328 17 46 322 289 272 288 298 308 305 301 297 321 36 114 135 140 145 146 144 152 153 157 155 174 179 177 190 197 201 211 221 244 251 245 262 279 277 268 273 243 250 255 259
303 145 287 308 304 272 261 276 296 300 309 291 330 66 122 135 135 134 136 130 129 140 150 167 161 181 198 191 194 206 218 233 252 243 255 274 261 264 259 256 254 250 254 260
249 259 292 138 1 294 244 273 310 23 61 66 96 98 124 132 131 124 141 122 117 131 135 152 161 175 192 193 192 205 230 235 226 231 260 254 269 247 252 248 240 246 255 266
33 13 318 309 328 322 201 159 79 91 98 92 87 80 88 97 125 132 121 124 124 125 129 137 147 163 174 174 186 203 210 224 236 249 259 262 259 273 282 266 259 261 264 263
251 325 319 320 356 168 182 153 126 105 103 96 91 79 38 82 144 137 132 134 129 131 140 145 139 150 162 169 185 194 204 225 236 263 262 265 270 273 279 286 291 281 273 268
259 280 274 3 85 90 130 132 121 123 130 140 148 128 126 263 135 125 126 129 128 126 126 125 131 152 162 170 191 202 209 223 234 256 268 272 279 283 283 284 279 278 285 283
19 295 267 258 196 160 127 136 151 155 149 138 127 142 192 188 143 130 121 128 132 111 111 126 139 151 182 193 204 216 231 241 257 261 270 270 271 278 286 287 286 286 283 281
309 337 310 224 195 199 195 182 163 156 152 146 146 155 170 164 139 130 126 132 112 112 116 123 122 154 192 223 243 257 265 253 260 265 269 272 275 274 273 282 282 281 280 277
312 182 149 95 93 109 137 155 163 159 155 149 145 144 142 122 119 109 109 115 121 124 140 173 209 232 245 256 259 253 260 272 280 279 277 283 278 281 284 273 278 279 278 277
74 75 86 101 104 105 103 112 128 133 131 126 123 125 117 105 98 101 105 113 120 117 141 254 259 277 267 270 279 293 296 296 293 286 286 283 285 279 278 280 277 273 275 280
87 89 91 97 105 105 106 107 107 116 117 118 122 115 110 107 105 101 103 101 88 71 24 3 355 353 349 315 329 327 312 311 304 279 273 280 285 285 278 270 269 274 288 276
95 94 96 96 96 97 98 97 103 101 99 115 119 113 107 101 100 99 98 93 83 73 1 333 336 344 319 314 318 328 322 321 314 316 311 309 302 293 285 274 272 273 275 274
105 102 99 97 101 104 102 104 109 108 106 105 105 105 101 104 103 88 68 48 11 345 335 326 319 321 335 320 341 326 319 313 311 306 307 310 313 315 316 301 294 293 292 290
107 103 104 106 107 106 103 106 110 106 106 109 103 98 102 95 67 35 54 57 345 346 7 354 340 336 335 351 352 346 344 343 338 330 323 321 318 314 313 313 317 313 314 318
112 111 108 104 102 103 105 103 98 96 96 94 94 95 94 87 84 93 20 30 30 21 28 2 5 16 23 19 10 11 8 5 2 359 355 355 353 351 350 345 348 342 341 335
114 113 108 105 107 106 102 94 85 80 75 74 77 87 90 67 66 63 45 41 36 45 47 34 30 26 51 24 21 20 17 12 5 359 354 358 344 341 339 338 337 335 330 330
114 108 104 101 94 92 87 77 70 67 69 73 74 73 75 83 95 80 72 45 49 69 8 7 17 28 19 11 8 2 354 343 340 343 338 330 326 326 324 324 323 319 321 320
106 103 98 94 93 90 86 88 92 92 88 87 84 80 77 70 67 59 39 41 21 24 0 355 346 357 347 340 341 336 330 327 328 322 322 321 316 316 315 313 314 314 313 311
102 93 91 90 86 90 98 107 100 95 93 88 85 78 73 59 44 38 34 8 357 347 340 334 337 325 333 327 335 327 325 321 317 317 318 317 313 309 309 309 310 309 309 309
Wind_Speed_850mb
28 22 17 24 22 26 31 35 29 22 12 21 11 7 4 30 46 50 47 46 46 46 44 42 40 36 36 36 31 31 28 24 21 17 7 6 8 10 10 7 6 8 7 9
25 25 20 28 27 27 31 30 25 28 28 30 5 4 4 25 48 56 57 52 47 45 43 44 43 42 42 39 37 33 31 27 25 14 6 9 10 11 10 8 7 6 5 10
23 3 13 20 31 30 29 27 27 28 26 19 17 17 19 19 41 59 62 58 54 52 49 46 46 47 46 44 38 38 36 33 23 11 12 11 11 11 10 7 9 7 10 10
21 6 24 7 11 16 29 26 28 28 28 27 23 28 28 23 37 58 61 59 55 52 48 43 40 40 40 42 40 39 41 34 22 17 14 14 14 14 13 11 10 10 13 12
16 25 31 10 11 13 19 28 28 28 23 20 20 21 28 21 30 46 53 53 51 47 44 43 42 44 41 37 38 40 34 26 21 18 15 15 17 17 14 13 11 11 12 10
16 21 31 17 19 4 5 19 29 14 14 20 13 19 17 4 18 29 38 42 43 42 42 41 40 36 38 39 44 41 31 25 18 12 14 19 20 19 17 14 13 12 11 9
21 23 23 16 10 4 18 3 25 21 19 17 10 14 10 11 18 23 30 35 38 43 42 39 35 32 39 41 39 32 27 19 16 19 22 18 19 19 18 16 16 15 12 14
13 20 27 12 5 12 12 18 22 23 20 17 8 5 8 15 23 22 26 32 34 39 40 38 25 34 35 34 34 29 24 20 18 18 16 16 18 19 18 17 15 15 14 14
10 8 4 11 13 13 14 16 21 22 20 13 6 5 9 20 27 29 30 32 30 34 42 34 26 34 36 33 28 27 24 21 18 18 18 19 21 19 14 17 12 14 17 17
7 6 3 14 9 12 13 16 15 14 13 8 7 5 13 23 29 31 30 38 37 30 31 26 23 24 24 28 32 28 23 20 20 17 19 20 15 15 15 16 17 17 18 18
13 13 8 10 6 7 8 8 5 4 4 5 11 17 19 23 30 40 30 31 26 24 28 31 29 28 29 31 29 23 20 18 18 15 18 15 16 17 19 22 21 20 20 19
9 9 13 20 13 13 13 5 10 15 25 28 32 30 23 19 19 24 26 29 31 30 26 27 28 26 27 24 18 16 14 14 12 11 13 14 15 17 22 20 29 27 26 30
13 8 16 12 11 2 9 12 18 33 34 35 35 32 23 11 13 26 32 36 35 33 32 32 29 25 23 17 13 13 11 11 9 10 12 13 14 17 18 21 25 24 28 29
6 11 7 2 9 13 15 21 30 27 24 22 20 24 35 6 11 28 28 26 31 36 30 27 22 17 11 8 10 12 11 13 8 10 13 13 15 16 18 19 21 20 24 28
5 4 15 13 5 12 16 20 27 31 26 31 37 39 35 38 36 26 28 27 28 31 25 20 16 12 11 10 11 10 10 10 12 13 16 20 20 20 23 25 25 24 21 27
16 9 6 4 9 16 18 16 24 35 38 35 41 30 28 30 39 36 33 27 28 25 19 15 12 6 5 9 12 11 14 20 23 21 23 24 27 28 27 31 32 30 31 31
11 8 6 9 13 12 14 18 24 34 33 29 27 25 25 30 33 33 30 24 22 18 13 10 7 10 11 15 15 15 23 27 32 34 38 39 38 43 38 38 39 38 39 37
9 10 13 17 20 24 27 28 30 28 28 31 32 30 27 28 30 27 24 17 12 8 2 3 6 6 14 19 16 17 22 24 26 28 29 31 33 32 34 39 37 36 40 36
18 21 27 32 31 33 33 35 32 30 30 31 31 31 29 28 26 23 19 15 11 9 5 2 3 6 10 11 8 11 14 16 16 19 22 23 23 17 25 32 30 26 24 28
28 31 34 39 36 36 37 34 33 33 30 27 28 26 26 27 24 19 15 13 9 4 4 7 9 13 16 21 18 16 19 20 20 22 23 23 23 25 24 27 29 30 34 38
32 34 35 39 42 42 41 39 38 40 39 36 32 32 24 20 16 15 13 11 7 9 13 17 19 19 18 23 17 15 16 17 18 20 20 21 23 23 25 28 31 33 35 34
37 38 39 40 42 46 44 38 33 38 36 31 28 26 19 13 7 3 2 6 10 11 11 15 19 22 20 17 14 12 14 15 15 15 16 18 18 20 19 21 22 22 24 27
42 44 41 39 39 43 39 35 32 27 24 21 17 13 11 9 8 7 4 10 10 12 13 16 18 18 17 14 14 15 15 16 16 16 16 16 17 17 17 18 19 21 23 24
42 41 39 35 33 30 27 23 18 16 15 15 14 15 15 11 14 13 13 12 13 13 15 18 20 20 24 16 15 14 14 14 15 14 14 19 16 17 17 19 20 22 25 26
32 30 27 24 21 18 15 14 15 16 18 18 18 18 17 16 13 12 11 12 19 14 9 18 22 23 15 15 16 16 15 15 17 15 17 18 20 22 23 26 28 31 32 31
26 22 20 18 15 13 12 12 13 13 14 15 16 16 16 15 16 13 13 14 12 16 12 12 12 14 15 17 17 18 20 20 22 24 27 27 29 30 32 34 36 37 39 41
23 21 17 15 13 12 11 14 14 15 15 13 14 14 14 12 15 13 15 13 12 14 14 15 16 19 19 21 20 22 24 25 29 31 31 32 35 37 38 39 41 43 45 46
Wind_Direction_850mb
260 276 273 238 222 217 233 252 263 273 314 304 338 344 265 202 184 180 182 184 183 180 182 185 183 182 177 181 189 186 191 189 188 200 215 313 332 334 331 320 281 255 249 257
266 250 243 247 246 208 222 251 247 263 287 289 33 338 260 211 193 189 185 187 183 180 180 179 181 180 187 193 198 197 193 187 203 203 243 280 317 318 319 305 284 266 261 261
270 28 236 241 243 236 237 223 236 247 271 349 284 287 293 250 210 200 192 186 185 181 181 183 184 190 194 200 202 203 193 199 205 209 252 280 291 306 309 289 262 270 258 261
276 255 248 325 348 263 232 229 234 252 276 291 302 288 280 251 219 205 194 188 186 184 180 182 180 185 194 205 200 197 193 195 200 221 246 270 293 300 291 272 266 268 272 251
256 253 263 189 219 213 217 243 230 253 279 302 300 285 260 229 218 204 193 190 190 186 179 175 179 186 197 199 191 186 193 196 207 224 247 273 285 288 277 267 255 262 272 259
250 270 264 297 74 118 234 241 20 338 308 304 295 277 62 123 192 188 188 188 183 179 174 175 185 193 196 189 185 187 193 201 217 243 262 276 283 280 271 275 266 268 260 268
244 250 261 43 76 197 228 322 334 323 315 305 291 354 354 120 157 173 175 177 173 171 166 171 179 191 186 187 188 191 192 200 219 248 273 262 270 277 283 274 250 267 256 265
236 271 257 26 141 255 6 325 326 319 314 312 329 53 99 128 151 162 157 156 158 158 162 161 165 186 182 184 189 193 199 209 232 262 256 250 271 281 280 270 261 256 250 265
328 17 46 322 289 272 288 298 308 305 301 297 321 36 114 135 140 145 146 144 152 153 157 155 174 179 177 190 197 201 211 221 244 251 245 262 279 277 268 273 243 250 255 259
303 145 287 308 304 272 261 276 296 300 309 291 330 66 122 135 135 134 136 130 129 140 150 167 161 181 198 191 194 206 218 233 252 243 255 274 261 264 259 256 254 250 254 260
249 259 292 138 1 294 244 273 310 23 61 66 96 98 124 132 131 124 141 122 117 131 135 152 161 175 192 193 192 205 230 235 226 231 260 254 269 247 252 248 240 246 255 266
33 13 318 309 328 322 201 159 79 91 98 92 87 80 88 97 125 132 121 124 124 125 129 137 147 163 174 174 186 203 210 224 236 249 259 262 259 273 282 266 259 261 264 263
251 325 319 320 356 168 182 153 126 105 103 96 91 79 38 82 144 137 132 134 129 131 140 145 139 150 162 169 185 194 204 225 236 263 262 265 270 273 279 286 291 281 273 268
259 280 274 3 85 90 130 132 121 123 130 140 148 128 126 263 135 125 126 129 128 126 126 125 131 152 162 170 191 202 209 223 234 256 268 272 279 283 283 284 279 278 285 283
19 295 267 258 196 160 127 136 151 155 149 138 127 142 192 188 143 130 121 128 132 111 111 126 139 151 182 193 204 216 231 241 257 261 270 270 271 278 286 287 286 286 283 281
309 337 310 224 195 199 195 182 163 156 152 146 146 155 170 164 139 130 126 132 112 112 116 123 122 154 192 223 243 257 265 253 260 265 269 272 275 274 273 282 282 281 280 277
312 182 149 95 93 109 137 155 163 159 155 149 145 144 142 122 119 109 109 115 121 124 140 173 209 232 245 256 259 253 260 272 280 279 277 283 278 281 284 273 278 279 278 277
74 75 86 101 104 105 103 112 128 133 131 126 123 125 117 105 98 101 105 113 120 117 141 254 259 277 267 270 279 293 296 296 293 286 286 283 285 279 278 280 277 273 275 280
87 89 91 97 105 105 106 107 107 116 117 118 122 115 110 107 105 101 103 101 88 71 24 3 355 353 349 315 329 327 312 311 304 279 273 280 285 285 278 270 269 274 288 276
95 94 96 96 96 97 98 97 103 101 99 115 119 113 107 101 100 99 98 93 83 73 1 333 336 344 319 314 318 328 322 321 314 316 311 309 302 293 285 274 272 273 275 274
105 102 99 97 101 104 102 104 109 108 106 105 105 105 101 104 103 88 68 48 11 345 335 326 319 321 335 320 341 326 319 313 311 306 307 310 313 315 316 301 294 293 292 290
107 103 104 106 107 106 103 106 110 106 106 109 103 98 102 95 67 35 54 57 345 346 7 354 340 336 335 351 352 346 344 343 338 330 323 321 318 314 313 313 317 313 314 318
112 111 108 104 102 103 105 103 98 96 96 94 94 95 94 87 84 93 20 30 30 21 28 2 5 16 23 19 10 11 8 5 2 359 355 355 353 351 350 345 348 342 341 335
114 113 108 105 107 106 102 94 85 80 75 74 77 87 90 67 66 63 45 41 36 45 47 34 30 26 51 24 21 20 17 12 5 359 354 358 344 341 339 338 337 335 330 330
114 108 104 101 94 92 87 77 70 67 69 73 74 73 75 83 95 80 72 45 49 69 8 7 17 28 19 11 8 2 354 343 340 343 338 330 326 326 324 324 323 319 321 320
106 103 98 94 93 90 86 88 92 92 88 87 84 80 77 70 67 59 39 41 21 24 0 355 346 357 347 340 341 336 330 327 328 322 322 321 316 316 315 313 314 314 313 311
102 93 91 90 86 90 98 107 100 95 93 88 85 78 73 59 44 38 34 8 357 347 340 334 337 325 333 327 335 327 325 321 317 317 318 317 313 309 309 309 310 309 309 309